When you browse on this site, cookies collect data to enhance your experience and personalize the content and advertising you see.
Visit our Privacy Policy to learn more. By continuing to use the site, you agree to this use of cookies and data.
  • In Schweiz
  • Länderverzeichnis
  • Für 7 Tage
  • Wassertemperatur
  • Wetterkarte
  • Widgets
  • user-avatar
    Anmelden

    Stündliche Wetter Lemgo

    Heute, 31 Mai, Sonntag

    Zeit Temperatur Niederschläge Wind Luftdruck Luftfeuchtigkeit
    00:00 +9°C° 0 mm 2 m/S 758 mmHg 88%
    01:00 +8°C° 0 mm 2 m/S 758 mmHg 91%
    02:00 +7°C° 0 mm 2 m/S 758 mmHg 92%
    03:00 +7°C° 0 mm 2 m/S 758 mmHg 92%
    04:00 +6°C° 0 mm 2 m/S 758 mmHg 92%
    05:00 +7°C° 0 mm 2 m/S 758 mmHg 88%
    06:00 +9°C° 0 mm 2 m/S 758 mmHg 83%
    07:00 +10°C° 0 mm 2 m/S 758 mmHg 78%
    08:00 +12°C° 0 mm 3 m/S 758 mmHg 73%
    09:00 +13°C° 0 mm 4 m/S 758 mmHg 67%
    10:00 +15°C° 0 mm 4 m/S 758 mmHg 62%
    11:00 +15°C° 0 mm 4 m/S 758 mmHg 59%
    12:00 +17°C° 0 mm 4 m/S 758 mmHg 57%
    13:00 +18°C° 0 mm 4 m/S 758 mmHg 55%
    14:00 +19°C° 0 mm 4 m/S 758 mmHg 55%
    15:00 +19°C° 0 mm 4 m/S 758 mmHg 56%
    16:00 +19°C° 0 mm 4 m/S 757 mmHg 56%
    17:00 +19°C° 0 mm 3 m/S 757 mmHg 61%
    18:00 +18°C° 0 mm 3 m/S 758 mmHg 67%
    19:00 +17°C° 0 mm 3 m/S 758 mmHg 73%
    20:00 +16°C° 0 mm 3 m/S 758 mmHg 77%
    21:00 +13°C° 0 mm 3 m/S 758 mmHg 82%
    22:00 +11°C° 0 mm 3 m/S 758 mmHg 87%
    23:00 +10°C° 0 mm 3 m/S 759 mmHg 88%

    Morgen, 1 Juni, Montag

    Zeit Temperatur Niederschläge Wind Luftdruck Luftfeuchtigkeit
    00:00 +9°C° 0 mm 3 m/S 759 mmHg 90%
    01:00 +8°C° 0 mm 3 m/S 759 mmHg 91%
    02:00 +8°C° 0 mm 2 m/S 759 mmHg 92%
    03:00 +7°C° 0 mm 2 m/S 759 mmHg 93%
    04:00 +7°C° 0 mm 1 m/S 758 mmHg 94%
    05:00 +8°C° 0 mm 2 m/S 759 mmHg 90%
    06:00 +9°C° 0 mm 2 m/S 759 mmHg 85%
    07:00 +12°C° 0 mm 2 m/S 759 mmHg 80%
    08:00 +14°C° 0 mm 2 m/S 759 mmHg 75%
    09:00 +16°C° 0 mm 3 m/S 759 mmHg 69%
    10:00 +18°C° 0 mm 3 m/S 759 mmHg 64%
    11:00 +19°C° 0 mm 4 m/S 759 mmHg 62%
    12:00 +20°C° 0 mm 4 m/S 758 mmHg 59%
    13:00 +21°C° 0 mm 5 m/S 758 mmHg 57%
    14:00 +21°C° 0 mm 5 m/S 758 mmHg 58%
    15:00 +21°C° 0 mm 5 m/S 757 mmHg 58%
    16:00 +22°C° 0 mm 5 m/S 757 mmHg 59%
    17:00 +21°C° 0 mm 4 m/S 757 mmHg 63%
    18:00 +20°C° 0 mm 4 m/S 757 mmHg 68%
    19:00 +19°C° 0 mm 3 m/S 757 mmHg 73%
    20:00 +17°C° 0 mm 3 m/S 757 mmHg 77%
    21:00 +16°C° 0 mm 3 m/S 757 mmHg 80%
    22:00 +13°C° 0 mm 3 m/S 757 mmHg 84%
    23:00 +13°C° 0 mm 2 m/S 757 mmHg 86%

    übermorgen, 2 Juni, Dienstag

    Zeit Temperatur Niederschläge Wind Luftdruck Luftfeuchtigkeit
    00:00 +12°C° 0 mm 2 m/S 757 mmHg 87%
    01:00 +10°C° 0 mm 2 m/S 757 mmHg 89%
    02:00 +10°C° 0 mm 2 m/S 757 mmHg 89%
    03:00 +11°C° 0 mm 1 m/S 757 mmHg 90%
    04:00 +10°C° 0 mm 1 m/S 756 mmHg 90%
    05:00 +12°C° 0 mm 1 m/S 756 mmHg 85%
    06:00 +13°C° 0 mm 1 m/S 756 mmHg 81%
    07:00 +15°C° 0 mm 2 m/S 756 mmHg 76%
    08:00 +17°C° 0 mm 2 m/S 756 mmHg 70%
    09:00 +19°C° 0 mm 3 m/S 756 mmHg 63%
    10:00 +20°C° 0 mm 3 m/S 755 mmHg 57%
    11:00 +21°C° 0 mm 3 m/S 755 mmHg 54%
    12:00 +22°C° 0 mm 3 m/S 754 mmHg 52%
    13:00 +24°C° 0 mm 3 m/S 754 mmHg 49%
    14:00 +24°C° 0 mm 3 m/S 753 mmHg 50%
    15:00 +24°C° 0 mm 3 m/S 753 mmHg 52%
    16:00 +24°C° 0 mm 3 m/S 752 mmHg 53%
    17:00 +22°C° 0 mm 3 m/S 752 mmHg 59%
    18:00 +21°C° 0 mm 3 m/S 751 mmHg 65%
    19:00 +20°C° 0 mm 3 m/S 751 mmHg 71%
    20:00 +18°C° 0 mm 3 m/S 751 mmHg 76%
    21:00 +16°C° 0 mm 2 m/S 751 mmHg 81%
    22:00 +15°C° 0 mm 2 m/S 751 mmHg 86%
    23:00 +14°C° 0 mm 2 m/S 750 mmHg 86%

    3 Juni, Mittwoch

    Zeit Temperatur Niederschläge Wind Luftdruck Luftfeuchtigkeit
    00:00 +13°C° 0 mm 2 m/S 750 mmHg 87%
    01:00 +13°C° 0 mm 2 m/S 750 mmHg 88%
    02:00 +13°C° 0 mm 2 m/S 749 mmHg 88%
    03:00 +12°C° 0 mm 2 m/S 749 mmHg 88%
    04:00 +12°C° 0 mm 2 m/S 749 mmHg 88%
    05:00 +13°C° 0 mm 2 m/S 749 mmHg 84%
    06:00 +15°C° 0 mm 2 m/S 749 mmHg 81%
    07:00 +16°C° 0 mm 2 m/S 748 mmHg 77%
    08:00 +18°C° 0 mm 2 m/S 748 mmHg 72%
    09:00 +20°C° 0 mm 2 m/S 748 mmHg 66%
    10:00 +21°C° 0 mm 2 m/S 748 mmHg 61%
    11:00 +24°C° 0 mm 1 m/S 748 mmHg 57%
    12:00 +25°C° 0 mm 1 m/S 748 mmHg 53%
    13:00 +26°C° 0 mm 1 m/S 748 mmHg 49%
    14:00 +26°C° 0 mm 1 m/S 747 mmHg 48%
    15:00 +26°C° 0 mm 1 m/S 747 mmHg 47%
    16:00 +26°C° 0 mm 1 m/S 747 mmHg 46%
    17:00 +25°C° 0 mm 2 m/S 746 mmHg 54%
    18:00 +24°C° 0 mm 2 m/S 746 mmHg 61%
    19:00 +23°C° 0 mm 2 m/S 746 mmHg 69%
    20:00 +20°C° 0 mm 2 m/S 747 mmHg 73%
    21:00 +18°C° 0 mm 2 m/S 747 mmHg 77%
    22:00 +17°C° 0 mm 2 m/S 747 mmHg 81%
    23:00 +16°C° 0 mm 2 m/S 747 mmHg 82%

    4 Juni, Donnerstag

    Zeit Temperatur Niederschläge Wind Luftdruck Luftfeuchtigkeit
    00:00 +16°C° 0 mm 2 m/S 747 mmHg 83%
    01:00 +15°C° 0 mm 2 m/S 747 mmHg 84%
    02:00 +15°C° 0 mm 1 m/S 747 mmHg 85%
    03:00 +14°C° 0 mm 1 m/S 746 mmHg 86%
    04:00 +14°C° 0 mm 1 m/S 746 mmHg 86%
    05:00 +16°C° 0 mm 1 m/S 746 mmHg 83%
    06:00 +18°C° 0 mm 1 m/S 746 mmHg 79%
    07:00 +19°C° 0 mm 1 m/S 746 mmHg 75%
    08:00 +21°C° 0 mm 1 m/S 746 mmHg 69%
    09:00 +23°C° 0 mm 1 m/S 746 mmHg 64%
    10:00 +25°C° 0 mm 1 m/S 746 mmHg 58%
    11:00 +25°C° 0.3 mm 1 m/S 746 mmHg 55%
    12:00 +26°C° 0.3 mm 1 m/S 746 mmHg 51%
    13:00 +26°C° 0.3 mm 1 m/S 746 mmHg 48%
    14:00 +25°C° 0.4 mm 2 m/S 745 mmHg 57%
    15:00 +23°C° 0.4 mm 2 m/S 745 mmHg 67%
    16:00 +21°C° 0.4 mm 3 m/S 745 mmHg 77%
    17:00 +20°C° 0.7 mm 2 m/S 745 mmHg 80%
    18:00 +19°C° 0.7 mm 2 m/S 745 mmHg 83%
    19:00 +20°C° 0.7 mm 1 m/S 745 mmHg 87%
    20:00 +18°C° 0 mm 1 m/S 746 mmHg 89%
    21:00 +15°C° 0 mm 2 m/S 746 mmHg 92%
    22:00 +14°C° 0 mm 2 m/S 746 mmHg 95%
    23:00 +13°C° 0 mm 2 m/S 746 mmHg 95%

    5 Juni, Freitag

    Zeit Temperatur Niederschläge Wind Luftdruck Luftfeuchtigkeit
    00:00 +12°C° 0 mm 1 m/S 746 mmHg 96%
    01:00 +11°C° 0 mm 1 m/S 746 mmHg 96%
    02:00 +10°C° 0 mm 1 m/S 746 mmHg 96%
    03:00 +10°C° 0 mm 1 m/S 745 mmHg 95%
    04:00 +8°C° 0 mm 0 m/S 745 mmHg 95%
    05:00 +10°C° 0 mm 0 m/S 745 mmHg 93%
    06:00 +11°C° 0 mm 0 m/S 745 mmHg 90%
    07:00 +12°C° 0 mm 0 m/S 745 mmHg 87%
    08:00 +15°C° 0 mm 0 m/S 745 mmHg 79%
    09:00 +17°C° 0 mm 0 m/S 745 mmHg 71%
    10:00 +22°C° 0 mm 1 m/S 745 mmHg 64%
    11:00 +23°C° 0 mm 1 m/S 744 mmHg 60%
    12:00 +24°C° 0 mm 1 m/S 744 mmHg 56%
    13:00 +25°C° 0 mm 2 m/S 744 mmHg 52%
    14:00 +25°C° 0 mm 2 m/S 743 mmHg 53%
    15:00 +25°C° 0 mm 3 m/S 743 mmHg 54%
    16:00 +25°C° 0 mm 3 m/S 743 mmHg 55%
    17:00 +24°C° 0 mm 3 m/S 743 mmHg 60%
    18:00 +22°C° 0 mm 3 m/S 743 mmHg 66%
    19:00 +21°C° 0 mm 3 m/S 743 mmHg 71%
    20:00 +18°C° 0 mm 3 m/S 744 mmHg 76%
    21:00 +16°C° 0 mm 3 m/S 744 mmHg 81%
    22:00 +12°C° 0 mm 3 m/S 745 mmHg 86%
    23:00 +12°C° 0 mm 2 m/S 745 mmHg 88%
    Mehr zeigen